Location: Unspecified
(0.0000°N, 0.0000°E)
Time: 10:41:19
(UTC+00:00)

EO-79 - Visible Passes

Search period start: 16 June 2025 00:00
Search period end: 26 June 2025 00:00
Orbit: 526 x 542 km, 98.1° (Epoch: 15 June)

Date Brightness Start Highest point End Pass type
(mag) Time Alt. Az. Time Alt. Az. Time Alt. Az.
16 Jun ? 04:43:38 10° NNW 04:47:09 33° WNW 04:47:37 32° W visible
17 Jun ? 04:34:20 10° N 04:38:04 48° WNW 04:38:26 46° W visible
18 Jun ? 04:25:08 10° N 04:28:59 70° WNW 04:29:13 67° WSW visible
19 Jun ? 04:16:00 10° NNE 04:19:53 81° ESE 04:20:00 80° SE visible
20 Jun ? 04:06:58 10° NNE 04:10:46 56° ESE 04:10:46 56° ESE visible
21 Jun ? 03:58:00 10° NNE 04:01:31 39° E 04:01:31 39° E visible
22 Jun ? 03:49:10 10° NE 03:52:16 27° E 03:52:16 27° E visible
23 Jun ? 03:40:28 10° NE 03:43:00 20° E 03:43:00 20° E visible
23 Jun ? 05:15:43 10° NW 05:17:27 13° WNW 05:18:22 12° W visible
24 Jun ? 03:32:01 10° ENE 03:33:43 14° E 03:33:43 14° E visible
24 Jun ? 05:05:39 10° NW 05:08:17 18° WNW 05:09:05 17° W visible
25 Jun ? 04:55:57 10° NNW 04:59:07 24° WNW 04:59:47 23° W visible
